TimeMST,TemperatureF,Dew PointF,Humidity,Sea Level PressureIn,VisibilityMPH,Wind Direction,Wind SpeedMPH,Gust SpeedMPH,PrecipitationIn,Events,Conditions,WindDirDegrees,DateUTC
12:53 AM,21.9,17.1,82,30.07,10.0,ESE,6.9,-,N/A,,Clear,120,2012-12-05 07:53:00
1:53 AM,21.9,18.0,85,30.06,10.0,SE,5.8,-,N/A,,Clear,130,2012-12-05 08:53:00
2:53 AM,23.0,18.0,81,30.02,10.0,SE,9.2,-,N/A,,Clear,130,2012-12-05 09:53:00
3:53 AM,24.1,19.0,81,29.99,10.0,SSE,9.2,-,N/A,,Clear,150,2012-12-05 10:53:00
4:53 AM,23.0,19.0,85,29.97,10.0,SE,6.9,-,N/A,,Clear,130,2012-12-05 11:53:00
5:53 AM,23.0,18.0,81,29.95,10.0,SE,8.1,-,N/A,,Clear,140,2012-12-05 12:53:00
7:53 AM,25.0,19.9,81,29.91,10.0,SE,5.8,-,N/A,,Clear,130,2012-12-05 14:53:00
8:53 AM,28.9,21.0,72,29.87,10.0,SSE,6.9,-,N/A,,Clear,160,2012-12-05 15:53:00
9:53 AM,32.0,21.9,66,29.86,10.0,South,3.5,-,N/A,,Clear,170,2012-12-05 16:53:00
10:53 AM,35.1,23.0,61,29.81,10.0,SSW,3.5,-,N/A,,Clear,210,2012-12-05 17:53:00
11:53 AM,39.0,23.0,53,29.76,10.0,SSW,4.6,-,N/A,,Clear,210,2012-12-05 18:53:00
12:53 PM,44.1,25.0,47,29.73,10.0,WSW,4.6,-,N/A,,Clear,240,2012-12-05 19:53:00
1:53 PM,48.9,27.0,43,29.70,10.0,Calm,Calm,-,N/A,,Clear,0,2012-12-05 20:53:00
2:53 PM,46.9,27.0,46,29.70,10.0,Calm,Calm,-,N/A,,Clear,0,2012-12-05 21:53:00
3:53 PM,45.0,28.0,52,29.71,10.0,Calm,Calm,-,N/A,,Partly Cloudy,0,2012-12-05 22:53:00
4:53 PM,45.0,28.9,53,29.73,10.0,West,4.6,-,N/A,,Overcast,280,2012-12-05 23:53:00
5:53 PM,44.1,28.9,55,29.75,10.0,NNW,5.8,-,N/A,,Mostly Cloudy,330,2012-12-06 00:53:00
6:53 PM,44.1,30.0,58,29.76,10.0,NW,4.6,-,N/A,,Mostly Cloudy,310,2012-12-06 01:53:00
7:53 PM,46.9,30.0,52,29.81,10.0,NNW,23.0,32.2,N/A,,Partly Cloudy,330,2012-12-06 02:53:00
8:53 PM,39.9,26.1,58,29.84,10.0,NNW,13.8,-,N/A,,Clear,330,2012-12-06 03:53:00
9:53 PM,41.0,23.0,49,29.88,10.0,NW,11.5,-,N/A,,Mostly Cloudy,320,2012-12-06 04:53:00
10:53 PM,37.0,19.9,50,29.92,10.0,NW,16.1,-,N/A,,Clear,310,2012-12-06 05:53:00
11:53 PM,33.1,19.9,59,29.94,10.0,WNW,9.2,-,N/A,,Clear,300,2012-12-06 06:53:00